Change the Weather History Date:

Thursday, December 6, 2012

  Actual Average Record
Temperature  
Mean Temperature 47 °F -  
Max Temperature 53 °F 46 °F 62 °F (2001)
Min Temperature 41 °F 28 °F 8 °F (2005)
Degree Days  
Heating Degree Days 18    
Moisture  
Dew Point 43 °F    
Average Humidity 83    
Maximum Humidity 100    
Minimum Humidity 54    
Precipitation  
Precipitation 0.00 in - - ()
Sea Level Pressure  
Sea Level Pressure 29.89 in    
Wind  
Wind Speed 9 mph (SE)    
Max Wind Speed 14 mph    
Max Gust Speed -    
Visibility 10 miles    
Events      
Averages and records for this station are not official NWS values.
T = Trace of Precipitation, MM = Missing Value Source: NWS Daily Summary

Daily Weather History Graph

Daily Weather History Graph

Search for Another Location

Airport or City:

Trip Planner

Search our weather history database for the weather conditions in past years. The results will help you decide how hot, cold, wet, or windy it might be!

Date:

Astronomy

Dec. 06, 2012 Rise Set
Actual Time 7:30 AM CST 5:10 PM CST
Civil Twilight 7:01 AM CST 5:39 PM CST
Nautical Twilight 6:28 AM CST 6:12 PM CST
Astronomical Twilight 5:56 AM CST 6:43 PM CST
Moon No Moon Rise 12:30 PM CST (12/6)
Length of Visible Light 10h 38m
Length of Day
9h 40m
Waning Gibbous, 49% of the Moon is Illuminated
Dec 6
Waning Gibbous
Dec 13
New
Dec 19
First Quarter
Dec 28
Full
Jan 4
Last Quarter

Hourly Weather History & Observations

Time (CST) Temp. Windchill Dew Point Humidity Pressure Visibility Wind Dir Wind Speed Gust Speed Precip Events Conditions
12:55 AM 44.4 °F 40.0 °F 28.6 °F 54% 29.96 in 10.0 mi SSE 8.1 mph - N/A   Clear
1:55 AM 42.8 °F 37.0 °F 29.5 °F 59% 29.93 in 10.0 mi SE 10.4 mph - N/A   Clear
2:55 AM 42.6 °F 37.8 °F 31.8 °F 66% 29.92 in 10.0 mi SE 8.1 mph - N/A   Clear
3:55 AM 42.4 °F 37.0 °F 34.0 °F 72% 29.90 in 10.0 mi ESE 9.2 mph - N/A   Clear
4:55 AM 41.7 °F 36.7 °F 36.3 °F 81% 29.90 in 10.0 mi ESE 8.1 mph - N/A   Mostly Cloudy
5:55 AM 41.7 °F 36.7 °F 38.3 °F 88% 29.89 in 10.0 mi SE 8.1 mph - N/A   Clear
6:55 AM 41.9 °F 36.9 °F 40.6 °F 95% 29.89 in 10.0 mi SE 8.1 mph - N/A   Clear
7:55 AM 43.7 °F 39.1 °F 43.7 °F 100% 29.89 in 10.0 mi SE 8.1 mph - N/A   Scattered Clouds
8:33 AM 44.6 °F 38.8 °F 44.6 °F 100% 29.88 in 10.0 mi SSE 11.5 mph - N/A   Mostly Cloudy
8:45 AM 44.6 °F 38.8 °F 44.6 °F 100% 29.88 in 10.0 mi SSE 11.5 mph - N/A   Scattered Clouds
8:49 AM 44.6 °F 39.2 °F 44.6 °F 100% 29.88 in 10.0 mi SSE 10.4 mph - N/A   Scattered Clouds
8:55 AM 45.5 °F 40.3 °F 45.3 °F 99% 29.88 in 10.0 mi SSE 10.4 mph - N/A   Scattered Clouds
9:01 AM 46.4 °F 41.9 °F 46.4 °F 100% 29.89 in 10.0 mi SE 9.2 mph - N/A   Mostly Cloudy
9:55 AM 48.2 °F - 48.2 °F 100% 29.88 in 10.0 mi SSE 10.4 mph - N/A   Overcast
10:32 AM 48.2 °F - 48.2 °F 100% 29.89 in 10.0 mi SSE 13.8 mph - N/A   Overcast
10:55 AM 49.5 °F - 48.2 °F 95% 29.89 in 10.0 mi SSE 12.7 mph - N/A   Overcast
11:04 AM 50.0 °F - 48.2 °F 94% 29.89 in 10.0 mi South 9.2 mph - N/A   Overcast
11:18 AM 51.8 °F - 48.2 °F 88% 29.88 in 10.0 mi South 10.4 mph - N/A   Overcast
11:55 AM 51.8 °F - 46.9 °F 83% 29.86 in 10.0 mi South 9.2 mph - N/A   Overcast
12:03 PM 51.8 °F - 46.4 °F 82% 29.86 in 10.0 mi South 6.9 mph - N/A   Overcast
12:09 PM 51.8 °F - 46.4 °F 82% 29.86 in 10.0 mi Variable 6.9 mph - N/A   Overcast
12:55 PM 52.5 °F - 46.0 °F 79% 29.85 in 10.0 mi SSW 4.6 mph - N/A   Overcast
1:55 PM 52.9 °F - 45.5 °F 76% 29.84 in 10.0 mi South 5.8 mph - N/A   Overcast
2:49 PM 53.6 °F - 44.6 °F 72% 29.85 in 10.0 mi Calm Calm - N/A   Overcast
2:55 PM 53.1 °F - 45.3 °F 75% 29.84 in 10.0 mi Calm Calm - N/A   Overcast
3:55 PM 53.2 °F - 44.4 °F 72% 29.85 in 10.0 mi NNE 5.8 mph - N/A   Overcast
4:55 PM 52.9 °F - 44.2 °F 72% 29.87 in 10.0 mi North 6.9 mph - N/A   Mostly Cloudy
5:55 PM 52.2 °F - 43.9 °F 73% 29.88 in 10.0 mi NNE 8.1 mph - N/A   Scattered Clouds
6:55 PM 50.4 °F - 45.0 °F 82% 29.89 in 6.0 mi NNE 12.7 mph - N/A   Haze
7:55 PM 50.0 °F - 45.3 °F 84% 29.91 in 10.0 mi NNE 12.7 mph - N/A   Mostly Cloudy
8:55 PM 49.8 °F - 45.1 °F 84% 29.91 in 10.0 mi NE 8.1 mph - N/A   Mostly Cloudy
9:55 PM 48.7 °F - 42.3 °F 78% 29.91 in 10.0 mi NNE 12.7 mph - N/A   Mostly Cloudy
10:55 PM 47.8 °F - 39.9 °F 74% 29.92 in 10.0 mi NNE 11.5 mph - N/A   Mostly Cloudy
11:55 PM 47.1 °F - 37.8 °F 70% 29.92 in 10.0 mi NNE 12.7 mph - N/A   Mostly Cloudy